x

8452951 - Potter Cove, Prudence Island, Ri (ptcr1) Weather Station

6:18 - Sun 19th Feb 2017 All times are EST. -5 hours from GMT.

  • Wind
    6mph, 8mph gusts
  • Luft Temp 44°f
  • Sea Pressure 1006.2mb
  • 8452951 - Potter Cove, Prudence Island, Ri
  • 8452951 - Potter Cove, Prudence Island, Ri

More Historic Weather Station data

Upgrade to MSW Pro to gain access to the past 30 days of data for over 8000 Wavebouys and Weather Stations around the globe.

Join Pro

Comparision Forecast

View Surf forecast
   
So 02/19 6:18 6 8 mph 1006.2mb 44f
6:12 6 9 mph 1006.2mb 45f
6:06 7 11 mph 1006.1mb 45f
6:00 7 11 mph 1006mb 46f
5:54 9 13 mph 1005.9mb 46f
5:48 9 13 mph - -
5:42 9 15 mph 1005.8mb 47f
5:36 8 13 mph 1005.7mb 47f
5:30 8 14 mph 1005.7mb 47f
5:24 10 15 mph 1005.6mb 46f
5:18 10 14 mph 1005.5mb 46f
5:12 9 14 mph 1005.4mb 47f
5:06 10 13 mph 1005.4mb 46f
5:00 9 14 mph 1005.3mb 46f
4:54 9 14 mph 1005.3mb 46f
4:48 9 14 mph 1005.2mb 46f
4:42 8 11 mph 1005.1mb 46f
4:36 10 14 mph 1005mb 47f
4:30 8 11 mph 1004.9mb 47f
4:24 10 14 mph 1004.9mb 46f
4:18 9 13 mph 1004.7mb 46f
4:12 9 13 mph 1004.7mb 45f
4:06 8 11 mph 1004.6mb 45f
4:00 9 11 mph 1004.6mb 45f
3:54 8 13 mph 1004.5mb 45f
3:48 8 11 mph 1004.3mb 45f
3:42 9 13 mph 1004.2mb 45f
3:36 9 13 mph 1004.2mb 45f
3:30 8 13 mph 1004.2mb 44f
3:24 8 13 mph 1004mb 44f
3:18 8 11 mph 1003.9mb 45f
3:12 9 13 mph 1003.8mb 45f
3:06 8 11 mph 1003.7mb 44f
3:00 7 10 mph 1003.6mb 44f
2:54 6 8 mph 1003.6mb 43f
2:48 8 10 mph - -
2:42 8 11 mph 1003.4mb 44f
2:36 9 14 mph 1003.3mb 44f
2:30 8 11 mph 1003.2mb 44f
2:24 8 11 mph 1003.2mb 43f
2:18 8 11 mph 1003.2mb 43f
2:12 8 11 mph 1003.2mb 44f
2:06 8 11 mph 1003.2mb 44f
2:00 8 11 mph 1003.1mb 43f
1:54 8 11 mph 1003mb 43f
1:48 8 11 mph 1002.9mb 44f
1:42 8 11 mph 1002.9mb 44f
1:36 8 10 mph 1002.9mb 44f
1:30 8 10 mph 1002.9mb 44f
1:24 8 10 mph 1002.9mb 44f
1:18 8 11 mph 1002.8mb 43f
1:12 8 11 mph 1002.8mb 43f
1:06 8 10 mph 1002.8mb 44f
1:00 8 10 mph 1002.8mb 43f
12:54 7 10 mph 1002.7mb 43f
12:48 7 10 mph 1002.7mb 43f
12:42 7 10 mph 1002.8mb 43f
12:36 7 9 mph 1002.8mb 43f
12:30 7 10 mph 1002.7mb 43f
12:24 7 10 mph 1002.7mb 43f
12:18 7 10 mph 1002.7mb 44f
12:12 7 13 mph 1002.7mb 44f
12:06 7 10 mph 1002.6mb 44f
12:00 7 13 mph 1002.7mb 44f
Sa 02/18 11:54 7 13 mph 1002.6mb 44f
11:48 7 11 mph 1002.7mb 44f
11:42 7 11 mph 1002.7mb 44f
11:36 7 11 mph 1002.6mb 44f
11:30 7 14 mph 1002.7mb 45f
11:24 7 9 mph 1002.7mb 45f
11:18 7 10 mph 1002.7mb 45f
11:12 6 10 mph 1002.7mb 45f
11:06 6 10 mph 1002.8mb 45f
11:00 6 10 mph 1002.7mb 44f
10:54 7 11 mph 1002.7mb 44f
10:48 8 13 mph 1002.7mb 44f
10:42 7 10 mph 1002.7mb 44f
10:36 6 10 mph 1002.7mb 44f
10:30 7 11 mph 1002.9mb 44f
10:24 7 11 mph 1002.9mb 44f
10:18 8 11 mph 1003mb 44f
10:12 8 13 mph 1002.9mb 44f
10:06 8 14 mph 1003mb 44f
10:00 8 13 mph 1003mb 44f
9:54 8 14 mph 1003mb 44f
9:48 8 13 mph 1003.1mb 44f
9:42 8 14 mph 1003.1mb 44f
9:36 7 13 mph 1003.1mb 43f
9:30 7 10 mph 1003.1mb 43f
9:24 7 14 mph 1003.2mb 42f
9:18 7 9 mph 1003.2mb 42f
9:12 8 13 mph 1003.2mb 42f
9:06 7 10 mph 1003.2mb 41f
9:00 9 14 mph 1003.3mb 42f
8:54 9 16 mph 1003.3mb 43f
8:48 8 11 mph - -
8:42 9 14 mph 1003.3mb 43f
8:36 8 13 mph 1003.4mb 42f
8:30 8 13 mph 1003.4mb 42f
8:24 8 11 mph 1003.4mb 42f
8:18 8 14 mph 1003.5mb 43f
8:12 8 11 mph 1003.5mb 42f
8:06 7 10 mph 1003.5mb 41f
8:00 8 13 mph 1003.6mb 41f
7:54 9 14 mph 1003.6mb 43f
7:48 9 13 mph 1003.5mb 43f
7:42 10 15 mph 1003.5mb 43f
7:36 9 13 mph 1003.6mb 43f
7:30 9 14 mph 1003.6mb 43f
7:24 9 14 mph 1003.6mb 43f
7:18 10 15 mph - -
7:12 11 16 mph 1003.6mb 44f
7:06 11 17 mph 1003.5mb 44f
7:00 10 16 mph 1003.6mb 44f
6:54 10 15 mph 1003.4mb 44f
6:48 8 11 mph 1003.4mb 44f
6:42 10 15 mph 1003.3mb 43f
6:36 9 14 mph 1003.6mb 44f
6:30 10 15 mph 1003.5mb 43f
6:24 10 15 mph 1003.6mb 44f
6:18 10 17 mph 1003.6mb 44f
6:12 10 16 mph 1003.6mb 44f
6:06 10 16 mph 1003.5mb 44f
6:00 11 17 mph 1003.4mb 44f
5:54 10 14 mph 1003.5mb 44f
5:48 10 14 mph 1003.4mb -
5:42 11 16 mph 1003.5mb 43f
5:36 9 15 mph 1003.7mb 44f
5:30 9 13 mph 1003.8mb 44f
5:24 10 17 mph 1003.8mb 44f
5:18 10 16 mph 1004mb 44f
5:12 9 16 mph 1003.9mb 44f
5:06 10 15 mph 1003.8mb 44f
5:00 10 16 mph 1003.9mb 44f
4:54 9 16 mph 1003.9mb 44f
4:48 10 15 mph 1004mb -
4:42 9 14 mph 1004.2mb 45f
4:36 8 11 mph 1004.2mb 44f
4:30 10 16 mph 1004.1mb 44f
4:24 11 17 mph 1003.9mb 44f
4:18 11 17 mph 1003.8mb 44f
4:12 10 16 mph 1003.7mb 44f
4:06 9 16 mph 1003.8mb 45f
4:00 10 15 mph 1003.7mb 45f
3:54 10 16 mph 1003.9mb 45f
3:48 11 17 mph 1003.9mb 46f
3:42 9 16 mph 1003.9mb 45f
3:36 10 16 mph 1003.9mb 45f
3:30 13 20 mph 1003.9mb 46f
3:24 14 20 mph 1003.8mb 46f
3:18 11 17 mph 1003.9mb 45f
3:12 10 16 mph 1003.9mb 46f
3:06 11 20 mph 1004mb 46f
3:00 13 18 mph 1004.2mb 46f
2:54 11 17 mph 1004.1mb 46f
2:48 11 18 mph 1004.1mb 46f
2:42 11 16 mph 1004.1mb 47f
2:36 13 18 mph 1004.3mb 46f
2:30 9 13 mph 1004.3mb 46f
2:24 10 15 mph 1004.6mb 46f
2:18 10 20 mph 1004.6mb 46f
2:12 10 15 mph 1004.9mb 46f
2:06 10 15 mph 1005mb 46f
2:00 10 16 mph 1004.9mb 46f
1:54 10 15 mph 1005.1mb 46f
1:48 9 14 mph 1005.4mb 46f
1:42 11 17 mph 1005.8mb 46f
1:36 11 21 mph 1005.9mb 45f
1:30 11 20 mph 1006.1mb 46f
1:24 11 16 mph 1006mb 46f
1:18 11 18 mph 1006mb 45f
1:12 11 16 mph 1006.3mb 46f
1:06 13 16 mph 1006.5mb 45f
1:00 14 22 mph 1006.5mb 45f
12:54 13 18 mph 1006.6mb 45f
12:48 14 21 mph 1006.7mb 45f
12:42 14 22 mph 1006.8mb 45f
12:36 14 20 mph 1007mb 45f
12:30 14 21 mph 1007.2mb 44f
12:24 13 21 mph 1007.1mb 44f
12:18 11 18 mph 1007.2mb 44f
12:12 11 18 mph 1007.2mb 43f
12:06 10 17 mph 1007.3mb 43f
12:00 11 17 mph 1007.4mb 44f
11:54 10 16 mph 1007.7mb 43f
11:48 11 18 mph 1007.9mb 44f
11:42 11 18 mph 1008.1mb 44f
11:36 13 16 mph 1008.3mb 44f
11:30 11 17 mph 1008.5mb 43f
11:24 9 16 mph 1008.6mb 43f
11:18 9 14 mph 1008.7mb 44f
11:12 8 13 mph 1008.8mb 43f
11:06 10 16 mph 1008.9mb 43f
11:00 8 11 mph 1009mb 43f
10:54 9 16 mph 1009mb 43f
10:48 10 16 mph - -
10:42 10 16 mph 1009.1mb 42f
10:36 6 8 mph 1009.2mb 41f
10:30 9 13 mph 1009.3mb 41f
10:24 8 11 mph 1009.5mb 41f
10:18 6 9 mph 1009.6mb 40f
10:12 8 13 mph 1009.8mb 40f
10:06 9 13 mph 1009.9mb 40f
10:00 8 14 mph 1009.9mb 40f
9:54 8 11 mph 1010mb 39f
9:48 8 13 mph 1010.2mb 39f
9:42 8 14 mph 1010.3mb 38f
9:36 9 14 mph 1010.4mb 38f
9:30 8 14 mph 1010.4mb 38f
9:24 9 13 mph 1010.5mb 38f
9:18 6 10 mph 1010.6mb 37f
9:12 7 9 mph 1010.7mb 37f
9:06 5 7 mph 1010.8mb 37f
9:00 3 6 mph 1010.9mb 36f
8:54 3 7 mph 1011mb 36f
8:48 6 8 mph - -
8:42 6 8 mph 1011mb 35f
8:36 7 9 mph 1010.9mb 35f
8:30 7 10 mph 1011.2mb 34f
8:24 8 11 mph 1011.3mb 34f
8:18 7 11 mph 1011.2mb 34f
8:12 9 13 mph 1011.4mb 34f
8:06 6 8 mph 1011.3mb 33f
8:00 6 8 mph 1011.3mb 33f
7:54 7 9 mph 1011.4mb 33f
7:48 6 8 mph - -
7:42 5 8 mph 1011.4mb 31f
7:36 6 8 mph 1011.5mb 31f
7:30 7 9 mph 1011.8mb 30f
7:24 6 9 mph 1011.7mb 30f
7:18 7 10 mph 1011.6mb 31f
7:12 8 13 mph 1011.7mb 31f
7:06 7 9 mph 1011.7mb 30f
7:00 7 10 mph 1011.6mb 30f
6:54 7 9 mph 1011.5mb 30f
6:48 5 7 mph 1011.5mb 30f
6:42 6 8 mph 1011.3mb 30f
6:36 5 7 mph 1011.2mb 29f
6:30 5 6 mph 1011.1mb 29f
6:24 7 9 mph 1011.3mb 29f
6:18 7 9 mph 1011.5mb 29f
6:12 6 8 mph 1011.4mb 30f
6:06 7 10 mph 1011.4mb 30f
6:00 6 9 mph 1011.4mb 30f
5:54 6 9 mph 1011.3mb 30f
5:48 6 8 mph 1011.3mb 30f
5:42 6 7 mph 1011.3mb 30f
5:36 6 9 mph 1011.2mb 30f
5:30 7 10 mph 1011.3mb 30f
5:24 7 11 mph 1011.4mb 30f
5:18 7 10 mph 1011.4mb 30f
5:12 6 7 mph 1011.5mb 30f
5:06 5 6 mph 1011.4mb 30f
5:00 3 5 mph 1011.2mb 30f
4:54 2 3 mph 1011.3mb 30f
4:48 3 5 mph - -
4:42 3 5 mph 1011.3mb 30f
4:36 1 2 mph 1011.2mb 30f
4:30 3
mph
1011.2mb 29f
4:24 3
mph
1011.3mb 30f
4:18 2 3 mph 1011.5mb 29f
4:12 2 3 mph 1011.4mb 30f
4:06 3 6 mph 1011.3mb 30f
4:00 2 3 mph 1011.6mb 29f
3:54 1
mph
1011.5mb 30f
3:48 2
mph
1011.3mb 30f
3:42 2
mph
1011.5mb 30f
3:36 2 3 mph 1011.5mb 30f
3:30  -  1 mph 1011.6mb 30f
3:24  -  1 mph 1011.7mb 30f
3:18  -  mph - -
3:12 2
mph
1011.9mb 30f
3:06 3 6 mph 1012mb 30f
3:00 2 3 mph 1012.1mb 30f
2:54 2 3 mph 1011.9mb 30f
2:48 2 6 mph - -
2:42 2 3 mph 1012mb 29f
2:36 2 3 mph 1011.9mb 30f
2:30 3 5 mph 1011.9mb 29f
2:24 5 7 mph 1012mb 29f
2:18 5 6 mph 1012mb 29f
2:12 5 6 mph 1012mb 30f
2:06 5 6 mph 1011.8mb 29f
2:00 3 5 mph 1011.8mb 30f
1:54 2
mph
1011.8mb 30f
1:48 3 5 mph 1011.8mb 29f
1:42 3 6 mph 1012mb -
1:36 2 5 mph 1012mb -
1:30 5 7 mph 1011.9mb 30f
1:24 5 7 mph 1011.9mb 30f
1:18 5 8 mph - -
1:12 5 6 mph 1011.7mb 30f
1:06 5 6 mph 1011.6mb 30f
1:00 3 5 mph 1011.5mb 30f
12:54 3 6 mph 1011.4mb 30f
12:48 5 7 mph 1011.4mb 30f
12:42 3 5 mph 1011.5mb 30f
12:36 2 5 mph 1011.3mb 30f
12:30 3 5 mph 1011.4mb 30f
12:24 5 7 mph 1011.3mb 30f
12:18 3 6 mph 1011.3mb 30f
12:12 5 7 mph 1011.3mb 30f
12:06 3 7 mph 1011.2mb 30f
12:00 5 8 mph 1011.1mb 31f
Fr 02/17 11:54 5 7 mph 1011.2mb 31f
11:48 3 7 mph 1011.1mb 31f
11:42 5 7 mph 1011.1mb 31f
11:36 5 8 mph 1011mb 31f
11:30 3 6 mph 1010.9mb 31f
11:24 5 7 mph 1010.8mb 31f
11:18 5 8 mph 1010.8mb 31f
11:12 5 7 mph 1010.7mb 31f
11:06 5 8 mph 1010.7mb 31f
11:00 5 8 mph 1010.7mb 31f
10:54 3 7 mph 1010.7mb 31f
10:48 5 8 mph - -
10:42 6 8 mph 1010.6mb 31f
10:36 6 9 mph 1010.5mb 31f
10:30 6 9 mph 1010.5mb 31f
10:24 6 9 mph 1010.6mb 31f
10:18 6 10 mph 1010.6mb 31f
10:12 6 10 mph 1010.6mb 31f
10:06 5 8 mph 1010.6mb 31f
10:00 3 6 mph 1010.7mb 31f
9:54 3 5 mph 1010.7mb 31f
9:48 5 8 mph 1010.5mb 31f
9:42 5 8 mph 1010.3mb 32f
9:36 3 7 mph 1010.2mb 32f
9:30 5 9 mph 1010.1mb 32f
9:24 5 8 mph 1009.9mb 32f
9:18 6 8 mph - -
9:12 6 9 mph 1009.9mb 32f
9:06 6 11 mph 1009.9mb 33f
9:00 5 7 mph 1010mb 32f
8:54 5 7 mph 1010mb 33f
8:48 5 7 mph 1010mb 33f
8:42 5 7 mph 1010.1mb 33f
8:36 5 8 mph 1010.1mb 33f
8:30 6 9 mph 1010.1mb 33f
8:24 5 7 mph 1010mb 33f
8:18 6 9 mph 1009.9mb 33f
8:12 6 10 mph 1010mb 34f
8:06 6 9 mph 1009.9mb 34f
8:00 5 9 mph 1009.9mb -
7:54 7 13 mph 1009.8mb 34f
7:48 8 11 mph 1009.7mb 35f
7:42 7 10 mph 1009.6mb 35f
7:36 6 7 mph 1009.5mb 35f
7:30 6 10 mph 1009.4mb 35f
7:24 7 10 mph 1009.3mb 35f
7:18 6 10 mph - -
7:12 7 10 mph 1009.2mb 35f
7:06 6 10 mph 1009.1mb 35f
7:00 6 8 mph 1009mb 36f
6:54 6 9 mph 1008.9mb 35f
6:48 6 9 mph 1008.8mb 36f
6:42 6 10 mph 1008.8mb 36f
6:36 7 14 mph 1008.8mb 36f
6:30 6 11 mph 1008.7mb 37f
6:24 6 10 mph 1008.5mb 36f
6:18 6 10 mph 1008.5mb 36f
6:12 6 13 mph 1008.5mb 37f
6:06 6 9 mph 1008.5mb 37f
6:00 6 11 mph 1008.4mb -
5:54 7 13 mph 1008.2mb 37f
5:48 8 17 mph - -
5:42 8 16 mph 1008.1mb 38f
5:36 6 16 mph 1008.1mb 38f
5:30 5 8 mph 1008mb 38f
5:24 5 10 mph 1008mb 38f
5:18 6 11 mph 1007.8mb 38f
5:12 6 10 mph 1007.7mb 38f
5:06 5 13 mph 1007.6mb 39f
5:00 6 10 mph 1007.5mb 39f
4:54 6 11 mph 1007.4mb 39f
4:48 8 17 mph 1007.2mb 40f
4:42 6 10 mph 1007.1mb 40f
4:36 6 14 mph 1007mb 40f
4:30 8 14 mph 1006.8mb 40f
4:24 8 15 mph 1006.7mb 40f
4:18 7 13 mph 1006.6mb 40f
4:12 7 13 mph 1006.5mb 41f
4:06 7 13 mph 1006.5mb 41f
4:00 6 13 mph 1006.4mb 41f
3:54 6 11 mph 1006.4mb 41f
3:48 6 15 mph 1006.3mb 41f
3:42 7 16 mph 1006.3mb 41f
3:36 6 11 mph 1006.3mb 41f
3:30 7 13 mph - -
3:24 7 10 mph 1006.2mb 42f
3:18 5 9 mph 1006.1mb 42f
3:12 6 11 mph 1006.1mb 42f
3:06 7 11 mph 1006.1mb 42f
3:00 6 11 mph 1006.1mb -
2:54 7 13 mph 1006.1mb 42f
2:48 6 11 mph 1006.2mb 41f
2:42 6 10 mph 1006.2mb 42f
2:36 9 14 mph 1006.2mb 42f
2:30 6 13 mph 1006.1mb 41f
2:24 7 13 mph 1006.1mb 41f
2:18 10 18 mph 1006.1mb 41f
2:12 8 16 mph 1006.1mb 40f
2:06 7 14 mph 1006.2mb 40f
2:00 9 18 mph 1006.1mb 40f
1:54 7 15 mph 1006.1mb 40f
1:48 8 18 mph 1006.1mb 40f
1:42 8 15 mph 1006.1mb 41f
1:36 7 13 mph 1006.2mb 40f
1:30 6 14 mph 1006.3mb 40f
1:24 8 15 mph 1006.3mb 40f
1:18 8 14 mph 1006.3mb 39f
1:12 8 15 mph 1006.2mb 39f
1:06 8 15 mph 1006.2mb 39f
1:00 8 16 mph 1006.2mb 39f
12:54 11 18 mph 1006.2mb 38f
12:48 7 13 mph - -
12:42 10 17 mph 1006.1mb 38f
12:36 8 14 mph 1006.2mb 38f
12:30 10 17 mph 1006.2mb 38f
12:24 9 17 mph 1006.2mb 37f
12:18 10 18 mph 1006.2mb 38f
12:12 9 16 mph 1006.2mb 37f
12:06 9 17 mph 1006.2mb 37f
12:00 8 17 mph 1006.3mb 37f
11:54 8 17 mph 1006.3mb 37f
11:48 9 17 mph 1006.3mb 37f
11:42 9 17 mph 1006.4mb 37f
11:36 8 16 mph 1006.5mb 36f
11:30 8 15 mph 1006.6mb 36f
11:24 7 16 mph 1006.6mb 36f
11:18 6 11 mph 1006.7mb 36f
11:12 9 17 mph 1006.8mb 36f
11:06 6 11 mph 1006.9mb 35f
11:00 9 15 mph 1006.9mb 36f
10:54 7 15 mph 1006.9mb 35f
10:48 9 16 mph 1007mb 35f
10:42 10 20 mph 1006.9mb 34f
10:36 9 17 mph 1006.9mb 34f
10:30 9 17 mph 1006.9mb 34f
10:24 10 21 mph 1006.9mb 34f
10:18 7 16 mph 1006.9mb -
10:12 8 17 mph 1007mb 33f
10:06 10 21 mph 1007mb 33f
10:00 9 18 mph 1007mb 33f
9:54 7 16 mph 1006.9mb 32f
9:48 9 16 mph 1007mb 32f
9:42 9 16 mph 1007mb 32f
9:36 8 15 mph 1006.9mb 32f
9:30 6 11 mph 1006.9mb 32f
9:24 7 15 mph 1006.9mb 32f
9:18 8 18 mph 1006.9mb 31f
9:12 9 18 mph 1006.9mb 31f
9:06 8 23 mph 1006.9mb 31f
9:00 6 14 mph 1007mb 30f
8:54 8 14 mph 1007mb 30f
8:48 7 13 mph 1007mb 30f
8:42 8 14 mph 1006.9mb 30f
8:36 9 17 mph 1007mb 29f
8:30 9 17 mph 1007.1mb 29f
8:24 8 15 mph 1007.1mb 29f
8:18 8 14 mph 1007.1mb 28f
8:12 6 16 mph 1007.1mb 28f
8:06 8 16 mph 1007.1mb 28f
8:00 8 16 mph 1007.1mb 28f
7:54 7 14 mph 1007.1mb 27f
7:48 8 13 mph 1007.1mb 27f
7:42 8 14 mph 1007mb 27f
7:36 6 11 mph 1007mb 26f
7:30 8 15 mph 1007mb 26f
7:24 7 13 mph 1006.9mb 26f
7:18 7 14 mph 1006.9mb 26f
7:12 6 13 mph 1006.9mb 26f
7:06 5 8 mph 1006.8mb 25f
7:00 6 8 mph 1006.7mb 25f
6:54 6 11 mph 1006.6mb 25f
6:48 6 11 mph - -
6:42 8 13 mph 1006.5mb 25f
6:36 8 14 mph 1006.4mb 25f
6:30 7 13 mph 1006.4mb 25f
6:24 6 11 mph 1006.4mb 25f
6:18 7 13 mph 1006.4mb 25f
6:12 8 14 mph 1006.4mb 25f
6:06 6 13 mph 1006.4mb 25f
6:00 6 13 mph 1006.4mb 25f
5:54 7 13 mph 1006.4mb 25f
5:48 9 14 mph 1006.4mb 25f
5:42 9 17 mph 1006.3mb 25f
5:36 7 15 mph 1006.3mb 25f
5:30 7 10 mph 1006.2mb 25f
5:24 7 14 mph 1006.2mb 25f
5:18 8 14 mph 1006.2mb 25f
5:12 6 14 mph 1006.1mb 25f
5:06 7 14 mph 1006.1mb 25f
5:00 6 10 mph 1006mb 24f
4:54 7 13 mph 1005.9mb 24f
4:48 6 13 mph 1005.8mb 25f
4:42 6 9 mph 1005.8mb 24f
4:36 6 10 mph 1005.8mb 24f
4:30 6 10 mph 1005.7mb 24f
4:24 8 14 mph 1005.7mb 25f
4:18 7 13 mph 1005.6mb 25f
4:12 6 11 mph 1005.6mb 24f
4:06 8 15 mph 1005.5mb 24f
4:00 8 14 mph 1005.4mb 25f
3:54 8 15 mph 1005.4mb 25f
3:48 6 10 mph 1005.3mb 25f
3:42 7 14 mph 1005.3mb 24f
3:36 8 14 mph 1005.2mb 25f
3:30 7 11 mph 1005.1mb 25f
3:24 8 14 mph 1005mb 25f
3:18 9 14 mph 1005mb 25f
3:12 8 16 mph 1005.1mb 25f
3:06 9 14 mph 1005.2mb 25f
3:00 8 14 mph 1005.2mb 25f
2:54 9 16 mph 1005.1mb 25f
2:48 6 11 mph 1005.2mb 25f
2:42 7 14 mph 1005.3mb 25f
2:36 5 11 mph 1005.3mb 25f
2:30 8 15 mph 1005.2mb 25f
2:24 7 14 mph 1005.2mb 25f
2:18 5 10 mph 1005.2mb 25f
2:12 7 18 mph 1005.2mb 25f
2:06 5 13 mph 1005.2mb 25f
2:00 7 14 mph 1005.2mb 25f
1:54 7 14 mph 1005.2mb 25f
1:48 6 15 mph 1005.2mb 25f
1:42 7 16 mph 1005.2mb 26f
1:36 7 13 mph 1005.2mb 26f
1:30 6 17 mph 1005.1mb 26f
1:24 7 15 mph 1005.1mb 26f
1:18 7 14 mph - -
1:12 8 17 mph 1004.9mb 26f
1:06 8 16 mph 1004.7mb 26f
1:00 7 15 mph 1004.7mb 26f
12:54 6 11 mph 1004.6mb 26f
12:48 6 16 mph 1004.7mb 26f
12:42 6 10 mph 1004.7mb 26f
12:36 8 17 mph 1004.7mb 26f
12:30 8 20 mph 1004.7mb 26f
12:24 8 17 mph 1004.8mb 26f
12:18 9 17 mph 1004.8mb 26f
12:12 10 21 mph 1004.7mb 26f
12:06 9 17 mph 1004.7mb 26f
12:00 9 20 mph 1004.6mb 26f
Do 02/16 11:54 10 20 mph 1004.5mb 26f
11:48 7 15 mph - -
11:42 9 20 mph 1004.4mb 26f
11:36 9 18 mph 1004.4mb 27f
11:30 9 17 mph 1004.3mb 27f
11:24 9 17 mph 1004.3mb 27f
11:18 9 21 mph 1004.2mb 27f
11:12 10 20 mph 1004.1mb 27f
11:06 8 15 mph 1004.1mb 27f
11:00 10 22 mph 1004.2mb 28f
10:54 10 20 mph 1004.1mb 28f
10:48 8 15 mph 1004mb 28f
10:42 8 21 mph 1004mb 28f
10:36 10 23 mph 1004mb 28f
10:30 7 14 mph 1003.9mb 28f
10:24 10 23 mph 1003.9mb 28f
10:18 8 16 mph 1003.8mb 28f
10:12 9 17 mph 1003.8mb 28f
10:06 7 16 mph 1003.8mb 28f
10:00 8 17 mph 1003.7mb 29f
9:54 7 18 mph 1003.7mb 29f
9:48 8 17 mph 1003.7mb 29f
9:42 10 21 mph 1003.6mb 29f
9:36 8 16 mph 1003.6mb 29f
9:30 9 20 mph 1003.6mb 29f
9:24 10 20 mph 1003.5mb 29f
9:18 8 17 mph 1003.4mb -
9:12 11 22 mph 1003.3mb 29f
9:06 9 20 mph 1003.3mb 29f
9:00 10 23 mph 1003.1mb 29f
8:54 8 18 mph 1003mb 30f
8:48 7 14 mph - -
8:42 10 22 mph 1002.9mb 30f
8:36 11 21 mph 1002.7mb 30f
8:30 10 22 mph 1002.7mb 30f
8:24 10 21 mph 1002.5mb 30f
8:18 9 21 mph 1002.5mb 31f
8:12 7 15 mph 1002.4mb 31f
8:06 10 20 mph 1002.4mb 31f
8:00 7 15 mph 1002.3mb 31f
7:54 9 18 mph 1002.2mb 31f
7:48 9 22 mph 1002.1mb 31f
7:42 10 20 mph 1002.1mb 31f
7:36 8 16 mph 1002mb 31f
7:30 8 17 mph 1001.9mb -
7:24 9 17 mph 1001.8mb 31f
7:18 9 17 mph 1001.7mb 31f
7:12 9 21 mph 1001.7mb 32f
7:06 10 21 mph 1001.6mb 32f
7:00 8 16 mph 1001.6mb -
6:54 6 11 mph 1001.6mb 32f
6:48 8 16 mph 1001.4mb 32f
6:42 7 16 mph 1001.3mb 32f
6:36 8 16 mph 1001.2mb 32f
6:30 11 22 mph - -
6:24 6 14 mph 1001mb 32f
6:18 9 21 mph - -
6:12 10 18 mph 1000.8mb 32f
6:06 9 20 mph 1000.6mb 32f
6:00 11 21 mph 1000.5mb 32f
5:54 11 22 mph 1000.4mb 33f
5:48 10 20 mph 1000.3mb -
5:42 11 22 mph 1000.2mb 33f
5:36 10 22 mph 1000mb 33f
5:30 10 21 mph - -
5:24 10 17 mph 999.7mb 33f
5:18 6 14 mph 999.6mb 33f
5:12 8 15 mph 999.5mb 34f
5:06 9 18 mph 999.4mb 34f
5:00 9 21 mph 999.2mb 34f
4:54 10 22 mph 999.1mb 34f
4:48 8 16 mph 999mb 34f
4:42 11 26 mph 999mb 34f
4:36 10 22 mph 998.8mb 34f
4:30 11 24 mph 998.7mb 35f
4:24 10 24 mph 998.7mb 35f
4:18 8 16 mph 998.5mb 35f
4:12 9 18 mph 998.4mb 35f
4:06 10 22 mph 998.3mb 35f
4:00 8 17 mph 998.2mb 35f
3:54 9 21 mph 998.1mb 36f
3:48 9 23 mph 998.1mb 36f
3:42 8 16 mph 998mb 36f
3:36 8 18 mph 997.9mb 36f
3:30 7 21 mph 997.9mb 36f
3:24 10 25 mph 997.8mb 36f
3:18 7 15 mph 997.8mb 36f
3:12 9 20 mph 997.8mb 37f
3:06 7 15 mph 997.6mb 37f
3:00 7 14 mph 997.6mb 37f
2:54 7 16 mph 997.5mb 37f
2:48 7 15 mph 997.4mb 38f
2:42 8 17 mph 997.4mb 38f
2:36 10 20 mph 997.4mb 38f
2:30 9 16 mph 997.3mb 38f
2:24 9 15 mph 997.3mb 38f
2:18 8 18 mph 997.2mb 37f
2:12 6 10 mph 997.2mb 37f
2:06 7 13 mph 997.1mb 37f
2:00 9 16 mph 997mb 37f
1:54 7 14 mph 997mb 37f
1:48 9 15 mph 997mb 38f
1:42 7 14 mph 997mb 38f
1:36 8 17 mph 997.1mb 37f
1:30 7 14 mph 997.1mb 37f
1:24 9 15 mph 997.1mb 38f
1:18 6 14 mph 997.1mb 37f
1:12 8 14 mph 997.2mb 38f
1:06 7 14 mph 997.2mb 38f
1:00 8 17 mph 997.3mb 38f
12:54 7 15 mph 997.3mb 38f
12:48 9 15 mph 997.2mb -
12:42 10 18 mph 997.3mb 37f
12:36 8 15 mph 997.2mb 37f
12:30 9 15 mph 997.2mb 36f
12:24 10 17 mph 997.2mb 36f
12:18 8 14 mph 997.1mb -
12:12 7 15 mph 997.2mb 36f
12:06 8 16 mph 997.2mb 36f
12:00 5 11 mph 997.3mb 36f
11:54 8 16 mph 997.3mb 37f
11:48 8 13 mph 997.3mb 37f
11:42 9 16 mph 997.3mb 37f
11:36 8 16 mph 997.3mb 36f
11:30 8 15 mph 997.4mb 37f
11:24 9 16 mph 997.4mb 38f
11:18 8 16 mph 997.5mb 37f
11:12 8 18 mph 997.5mb 37f
11:06 8 15 mph 997.5mb 37f
11:00 7 11 mph 997.5mb 36f
10:54 7 13 mph 997.5mb 35f
10:48 7 14 mph 997.4mb 37f
10:42 8 15 mph 997.4mb 36f
10:36 9 15 mph 997.3mb 36f
10:30 10 22 mph 997.3mb 36f
10:24 10 21 mph 997.2mb 36f
10:18 10 20 mph 997.1mb 36f
10:12 8 17 mph 997.1mb 36f
10:06 7 14 mph 997mb 37f
10:00 9 16 mph 997mb 37f
9:54 7 15 mph 996.9mb 37f
9:48 9 20 mph - -
9:42 11 20 mph 996.8mb 36f
9:36 8 20 mph 996.8mb 36f
9:30 10 21 mph 996.8mb 36f
9:24 8 15 mph 996.7mb 36f
9:18 8 17 mph 996.7mb 37f
9:12 8 18 mph 996.7mb 36f
9:06 8 17 mph 996.7mb 36f
9:00 8 15 mph 996.6mb 36f
8:54 8 18 mph 996.6mb 35f
8:48 7 16 mph 996.6mb 35f
8:42 7 14 mph 996.5mb 34f
8:36 10 16 mph 996.5mb 34f
8:30 9 14 mph 996.4mb 35f
8:24 9 18 mph 996.3mb 35f
8:18 9 14 mph 996.3mb 35f
8:12 7 11 mph 996.2mb 35f
8:06 7 14 mph 996.1mb 35f
8:00 6 10 mph 996.1mb 35f
7:54 6 10 mph 996mb 35f
7:48 5 9 mph - -
7:42 6 11 mph 995.8mb 35f
7:36 6 14 mph 995.8mb 35f
7:30 6 15 mph 995.8mb 34f
7:24 5 11 mph 995.7mb 34f
7:18 8 16 mph 995.6mb 34f
7:12 8 16 mph 995.5mb 34f
7:06 7 14 mph 995.4mb 34f
7:00 8 15 mph 995.3mb 33f
6:54 8 13 mph 995.2mb 33f
6:48 5 10 mph 995mb 33f
6:42 6 13 mph 994.9mb 33f
6:36 6 11 mph 994.8mb 33f
6:30 6 11 mph 994.7mb 33f
6:24 7 11 mph 994.6mb 33f
6:18 7 13 mph 994.5mb 33f
6:12 7 13 mph 994.5mb 33f
6:06 7 13 mph 994.4mb 33f
6:00 7 14 mph 994.4mb 33f
5:54 7 11 mph 994.2mb 33f
5:48 7 14 mph 994.2mb 33f
5:42 7 16 mph 994.1mb 33f
5:36 8 16 mph 994mb 33f
5:30 9 16 mph 994mb 33f
5:24 7 16 mph 993.8mb 33f
5:18 7 14 mph 993.8mb 33f
5:12 7 15 mph 993.7mb 33f
5:06 6 13 mph 993.6mb 33f
5:00 7 14 mph 993.5mb 33f
4:54 6 13 mph 993.4mb 33f
4:48 7 15 mph 993.4mb 33f
4:42 7 15 mph 993.3mb 34f
4:36 7 15 mph 993.2mb 34f
4:30 6 11 mph 993.2mb 34f
4:24 8 14 mph 993.1mb 34f
4:18 8 15 mph 993mb 34f
4:12 9 17 mph 992.9mb 34f
4:06 7 16 mph 992.9mb 34f
4:00 8 18 mph 992.8mb 34f
3:54 9 16 mph 992.7mb 34f
3:48 10 16 mph 992.6mb 34f
3:42 9 16 mph 992.6mb 34f
3:36 10 20 mph 992.5mb 34f
3:30 9 16 mph 992.5mb 34f
3:24 9 15 mph 992.4mb 34f
3:18 10 22 mph 992.3mb 34f
3:12 10 21 mph 992.2mb 34f
3:06 11 21 mph 992.1mb 35f
3:00 10 18 mph 992.1mb 35f
2:54 10 17 mph 992mb 35f
2:48 11 22 mph 992mb 35f
2:42 13 21 mph 992mb 35f
2:36 9 16 mph 991.9mb 35f
2:30 10 18 mph 991.9mb 35f
2:24 11 20 mph 991.9mb 35f
2:18 11 22 mph 991.8mb 35f
2:12 9 22 mph 991.8mb 35f
2:06 10 20 mph 991.8mb 35f
2:00 9 18 mph 991.7mb 35f
1:54 8 15 mph 991.7mb 35f
1:48 8 18 mph 991.6mb 35f
1:42 9 16 mph 991.5mb -
1:36 9 17 mph 991.5mb -
1:30 8 18 mph 991.4mb 35f
1:24 7 14 mph 991.4mb 35f
1:18 9 16 mph 991.3mb 35f
1:12 8 20 mph 991.3mb 35f
1:06 8 16 mph 991.3mb 35f
1:00 6 13 mph 991.3mb 35f
12:54 8 18 mph 991.2mb 35f
12:48 8 14 mph - -
12:42 7 16 mph 991.2mb 36f
12:36 8 16 mph 991.2mb 36f
12:30 9 17 mph 991.2mb 36f
12:24 8 17 mph 991.2mb 36f
12:18 8 14 mph 991.2mb 36f
12:12 10 20 mph 991.1mb 36f
12:06 7 17 mph 991.1mb 36f
12:00 7 14 mph 991mb 36f
Mi 02/15 11:54 8 17 mph 991mb 36f
11:48 8 18 mph 990.9mb 36f
11:42 7 16 mph 990.9mb 36f
11:36 9 20 mph 990.9mb 36f
11:30 9 16 mph 990.8mb 36f
11:24 8 16 mph 990.7mb 36f
11:18 8 16 mph 990.7mb 36f
11:12 9 18 mph 990.6mb 36f
11:06 9 16 mph 990.7mb 36f
11:00 7 15 mph 990.6mb 36f
10:54 7 15 mph 990.6mb 36f
10:48 7 16 mph - -
10:42 7 14 mph 990.4mb 36f
10:36 7 16 mph 990.4mb 36f
10:30 7 16 mph 990.4mb 36f
10:24 5 11 mph 990.5mb 36f
10:18 7 13 mph 990.5mb 36f
10:12 6 11 mph 990.5mb 36f
10:06 6 17 mph 990.6mb 36f
10:00 6 11 mph 990.6mb 36f
9:54 5 9 mph 990.6mb 36f
9:48 5 8 mph - -
9:42 6 10 mph 990.6mb 36f
9:36 5 8 mph 990.6mb 36f
9:30 6 10 mph 990.5mb 36f
9:24 5 11 mph 990.5mb 36f
9:18 5 9 mph - -
9:12 5 10 mph 990.6mb 36f
9:06 5 7 mph 990.7mb 36f
9:00 5 8 mph 990.7mb 36f
8:54 5 8 mph 990.8mb 37f
8:48 6 11 mph 990.8mb -
8:42 6 10 mph 990.7mb 37f
8:36 6 10 mph 990.8mb 37f
8:30 7 10 mph 990.7mb -
8:24 6 11 mph 990.9mb 37f
8:18 6 9 mph 991mb 37f
8:12 6 9 mph 990.9mb 37f
8:06 6 13 mph 990.9mb 37f
8:00 6 11 mph 991mb -
7:54 5 10 mph 991.2mb 37f
7:48 6 9 mph 991.1mb 38f
7:42 5 9 mph 991.1mb 38f
7:36 6 13 mph 991.1mb 38f
7:30 8 13 mph 991.2mb 37f
7:24 5 6 mph 991.2mb 37f
7:18 5 7 mph 990.8mb 37f
7:12 5 8 mph 990.9mb 38f
7:06 3 6 mph 991.1mb 37f
7:00 3 6 mph 991.1mb 37f
6:54 3 5 mph 991mb 38f
6:48 3 5 mph 991.1mb 38f
6:42 3 6 mph 991.1mb 38f
6:36 3 6 mph 991mb 38f
6:30 3 5 mph 991mb 38f
6:24 3 5 mph 991.1mb 38f
6:18 6 7 mph 990.9mb 38f
6:12 6 8 mph 990.9mb 38f
6:06 8 10 mph 991mb 38f
6:00 7 8 mph 991mb -
5:54 7 9 mph 991.1mb 38f
5:48 8 9 mph - -
5:42 6 8 mph 991mb 38f
5:36 6 7 mph 991.1mb 38f
5:30 3 5 mph 991.3mb 38f
5:24 3 5 mph 991.3mb 39f
5:18 5 6 mph 991.3mb 39f
5:12 5 6 mph 991.3mb 39f
5:06 5 6 mph 991.3mb 39f
5:00 5 6 mph 991.5mb -
4:54 3 6 mph 991.7mb 39f
4:48 3 6 mph 991.7mb 39f
4:42 3 5 mph 991.7mb 39f
4:36 3 6 mph 991.8mb 39f
4:30 3 7 mph 991.8mb 39f
4:24 3 6 mph 992.1mb 39f
4:18 2 3 mph 992.3mb -
4:12 2
mph
992.4mb 40f
4:06 1 2 mph 992.5mb 39f
4:00  -  1 mph 992.6mb 39f
3:54 2
mph
992.7mb 39f
3:48  -  1 mph 992.8mb 39f
3:42 2 3 mph 993mb 38f
3:36 2 3 mph 993.1mb 38f
3:30 2 3 mph 993.2mb 38f
3:24 3 6 mph 993.3mb 38f
3:18 3 8 mph 993.4mb 39f
3:12 2 5 mph 993.5mb 39f
3:06 2 6 mph 993.5mb 39f
3:00 2 6 mph 993.7mb 39f
2:54 2 5 mph 993.9mb 40f
2:48 2 5 mph 994mb 40f
2:42 3 8 mph 994.1mb 41f
2:36 1 5 mph 994.2mb 41f
2:30  -  1 mph 994.3mb 40f
2:24  -  1 mph 994.4mb 40f
2:18  -  2 mph 994.6mb 41f
2:12  -  mph 994.7mb 41f
2:06  -  1 mph 994.8mb 41f
2:00 2 3 mph 994.8mb 41f
1:54 2 5 mph 994.8mb 41f
1:48  -  2 mph 995mb 41f
1:42  -  3 mph 995.1mb 41f
1:36  -  3 mph 995.3mb 41f
1:30 2 5 mph 995.4mb 41f
1:24 3 8 mph 995.6mb 41f
1:18 3 7 mph 995.8mb 41f
1:12 5 10 mph 995.9mb 41f
1:06 7 11 mph 996mb 41f
1:00 9 20 mph 996mb 41f
12:54 6 13 mph 996mb 42f
12:48 6 10 mph 996.1mb 42f
12:42 6 10 mph 996.1mb 42f
12:36 6 13 mph 996.3mb 42f
12:30 6 11 mph 996.5mb 42f
12:24 6 14 mph 996.8mb 42f
12:18 7 14 mph 996.9mb 42f